Camp Douglas, WI

1:10 AM CST on December 09, 2016 (GMT -0600)
Volk

Weather History for KVOK - December, 2013

Change the Weather History Date:

Tuesday, December 31, 2013

  Actual Average Record
Temperature  
Mean Temperature -2 °F -  
Max Temperature 5 °F 23 °F 45 °F (2010)
Min Temperature -8 °F 12 °F -8 °F (2008)
Degree Days  
Heating Degree Days 66    
Moisture  
Dew Point -6 °F    
Average Humidity 76    
Maximum Humidity 85    
Minimum Humidity 61    
Precipitation  
Precipitation 0.00 in - - ()
Snow  
Snow 0.00 in - - ()
Snow Depth 7.00 in    
Sea Level Pressure  
Sea Level Pressure 30.29 in    
Wind  
Wind Speed 6 mph (WNW)    
Max Wind Speed 10 mph    
Max Gust Speed -    
Visibility 10 miles    
Events Snow    
Averages and records for this station are not official NWS values.
T = Trace of Precipitation, MM = Missing Value Source: NWS Daily Summary

Daily Weather History Graph

Daily Weather History Graph

Search for Another Location

Airport or City:

Trip Planner

Search our weather history database for the weather conditions in past years. The results will help you decide how hot, cold, wet, or windy it might be!

Date:

Astronomy

Dec. 31, 2013 Rise Set
Actual Time 7:35 AM CST 4:33 PM CST
Civil Twilight 7:02 AM CST 5:05 PM CST
Nautical Twilight 6:26 AM CST 5:42 PM CST
Astronomical Twilight 5:51 AM CST 6:17 PM CST
Moon 6:26 AM CST (12/31) 4:10 PM CST (12/31)
Length of Visible Light 10h 03m
Length of Day
8h 57m
Waning Crescent, 1% of the Moon is Illuminated
Dec 31
Waning Crescent
Jan 1
New
Jan 7
First Quarter
Jan 15
Full
Jan 23
Last Quarter

Hourly Weather History & Observations

Time (CST) Temp. Windchill Dew Point Humidity Pressure Visibility Wind Dir Wind Speed Gust Speed Precip Events Conditions
12:01 AM -2.2 °F -12.5 °F -5.8 °F 85% 30.16 in 10.0 mi West 4.6 mph - N/A Snow Light Snow
12:58 AM -0.8 °F -10.8 °F -4.7 °F 83% 30.24 in 10.0 mi West 4.6 mph - - Snow Light Snow
1:03 AM -0.4 °F -10.4 °F -4.0 °F 85% 30.14 in 10.0 mi West 4.6 mph - N/A   Overcast
1:58 AM 0.1 °F -11.4 °F -4.4 °F 81% 30.23 in 10.0 mi WNW 5.8 mph - -   Overcast
2:18 AM -0.4 °F -12.0 °F -4.0 °F 85% 30.14 in 10.0 mi West 5.8 mph - N/A   Overcast
2:58 AM 0.7 °F -9.1 °F -4.2 °F 80% 30.24 in 10.0 mi WNW 4.6 mph - -   Overcast
3:33 AM 1.4 °F -9.9 °F -4.0 °F 78% 30.15 in 10.0 mi West 5.8 mph - N/A   Overcast
3:58 AM 0.5 °F -9.3 °F -4.2 °F 81% 30.24 in 10.0 mi WNW 4.6 mph - -   Overcast
4:58 AM 0.9 °F -13.1 °F -4.0 °F 80% 30.26 in 10.0 mi West 8.1 mph - -   Overcast
5:00 AM 1.4 °F -11.3 °F -4.0 °F 78% 30.17 in 10.0 mi West 6.9 mph - N/A Snow Light Snow
5:24 AM 1.4 °F -11.3 °F -4.0 °F 78% 30.18 in 10.0 mi West 6.9 mph - N/A   Overcast
5:31 AM 1.4 °F -11.3 °F -4.0 °F 78% 30.18 in 10.0 mi West 6.9 mph - N/A Snow Light Snow
5:40 AM 1.4 °F -11.3 °F -4.0 °F 78% 30.18 in 10.0 mi West 6.9 mph - N/A   Overcast
5:58 AM 0.9 °F -11.9 °F -4.0 °F 80% 30.27 in 10.0 mi West 6.9 mph - -   Overcast
6:13 AM 1.4 °F -11.3 °F -4.0 °F 78% 30.19 in 10.0 mi West 6.9 mph - N/A   Overcast
6:53 AM -2.2 °F -12.5 °F -5.8 °F 85% 30.18 in 10.0 mi WNW 4.6 mph - N/A   Mostly Cloudy
6:58 AM -2.2 °F -12.5 °F -5.8 °F 85% 30.27 in 10.0 mi WNW 4.6 mph - N/A   Partly Cloudy
7:58 AM -5.8 °F -14.5 °F -9.4 °F 84% 30.28 in 10.0 mi NW 3.5 mph - N/A   Partly Cloudy
8:58 AM -2.2 °F -18.0 °F -5.8 °F 85% 30.33 in 10.0 mi WSW 9.2 mph - N/A   Mostly Cloudy
9:58 AM 1.4 °F -14.5 °F -5.8 °F 72% 30.35 in 10.0 mi West 10.4 mph - N/A   Mostly Cloudy
10:58 AM 1.4 °F -13.5 °F -5.8 °F 72% 30.36 in 10.0 mi West 9.2 mph - N/A   Overcast
11:58 AM 3.2 °F -11.3 °F -4.0 °F 72% 30.34 in 10.0 mi West 9.2 mph - N/A   Overcast
12:58 PM 3.9 °F -10.4 °F -4.2 °F 69% 30.33 in 10.0 mi WNW 9.2 mph - -   Overcast
1:58 PM 4.6 °F -9.5 °F -4.9 °F 65% 30.32 in 10.0 mi West 9.2 mph - -   Overcast
2:58 PM 4.6 °F -10.4 °F -5.8 °F 62% 30.32 in 10.0 mi WNW 10.4 mph - -   Overcast
3:58 PM 5.0 °F -8.1 °F -5.8 °F 61% 30.35 in 10.0 mi WNW 8.1 mph - N/A   Overcast
4:58 PM 5.0 °F -4.1 °F -5.8 °F 61% 30.35 in 10.0 mi NNW 4.6 mph - N/A   Overcast
5:58 PM 5.0 °F -8.1 °F -5.8 °F 61% 30.38 in 10.0 mi NW 8.1 mph - N/A   Overcast
6:58 PM 1.4 °F -6.2 °F -7.6 °F 66% 30.40 in 10.0 mi NW 3.5 mph - N/A   Mostly Cloudy
7:58 PM -0.9 °F -11.0 °F -10.3 °F 65% 30.42 in 10.0 mi NNW 4.6 mph - -   Partly Cloudy
8:58 PM -3.6 °F -15.9 °F -11.6 °F 69% 30.43 in 10.0 mi North 5.8 mph - -   Clear
9:58 PM -5.8 °F -14.5 °F -12.8 °F 72% 30.44 in 10.0 mi North 3.5 mph - -   Clear
10:58 PM -8.1 °F -21.2 °F -13.7 °F 77% 30.44 in 10.0 mi North 5.8 mph - -   Clear
11:58 PM -8.3 °F - -13.5 °F 78% 30.44 in 10.0 mi Calm Calm - -   Clear